Back to catalog

STARLINK-31275

AliveCommunicationsVLEO
NORAD 59197·PAYLOAD·🇺🇸 United States

Launched Mar 10, 2024 from Cape Canaveral Space Force Station

Loading…

Next Passes (next 24 hours)

TLE

FreshSource: CelesTrak SupGP

Epoch: Sep 14, 2026, 14:57 UTC

1 59197C 24045V   26257.62340278  .00002840  00000+0  10286-3 0  2570
2 59197  43.0013 105.7847 0001366 261.9192  95.4518 15.27575485    14

Track STARLINK-31275 in real time with AllMySat

Download on the App Store